Regional Weather Roundup
Issued by NWS Sterling, VA

Home | Current Version | Previous Version | Text Only | Print | Product List | Glossary Off
Versions: 1 2 3 4 5 6 7 8 9 10 11 12 13 14 15 16 17 18 19 20 21 22 23 24 25 26 27 28

000
ASUS41 KLWX 140910
RWRLWX

REGIONAL WEATHER ROUNDUP
NATIONAL WEATHER SERVICE BALTIMORE MD/WASHINGTON DC
400 AM EST THU DEC 14 2017

Note: "FAIR" indicates few or no clouds below 12,000 feet
with no significant weather and/or obstructions to visibility.
 TC=TEMPERATURE CELSIUS

 * =Non NWS site. Station does not report precipitation (e.g. rain,
    snow, etc.), thunder, or fog.

DCZ001-MDZ009-015-VAZ040>042-051-053>054-141000-
WASHINGTON METRO

CITY           SKY/WX    TMP DP  RH WIND       PRES   REMARKS
WASHINGTON NAT PTCLDY    36  19  50 S12       29.52F WCI  28
DULLES         PTCLDY    31  16  54 S9        29.49F WCI  23
ANDREWS AFB    MOCLDY    34  16  47 S12       29.50F WCI  26
FT BELVOIR     PTCLDY    36  17  46 S5        29.51F
COLLEGE PARK*  CLOUDY    36  16  44 S3        29.51F
LEESBURG*      MOCLDY    32  19  59 S3        29.50S
MANASSAS*      CLEAR     33  17  51 S7        29.51F
GAITHERSBURG*  CLOUDY    34  15  46 VRB7      29.49F

$$

MDZ006>007-011-014-141000-
BALTIMORE METRO

CITY           SKY/WX    TMP DP  RH WIND       PRES   REMARKS
BWI AIRPORT    MOCLDY    35  18  49 SW7       29.50F
MD SCIENCE CTR   N/A     35  21  56 MISG      29.51F
MARTIN STATE   CLOUDY    36  23  60 S7        29.52F
ANNAPOLIS      CLOUDY    37  19  48 VRB6      29.51F
FORT MEADE*    CLOUDY    34  19  55 SW7       29.53F

$$

MDZ012-015-019>023-141000-
MARYLAND EASTERN SHORE

CITY           SKY/WX    TMP DP  RH WIND       PRES   REMARKS
OCEAN CITY     PTCLDY    38  24  57 SW14      29.58F
SALISBURY      PTCLDY    37  25  61 SW10      29.56F
BAY BRIDGE AP* CLOUDY    39  19  45 SW13      29.52F
CAMBRIDGE*     CLOUDY    39  21  48 SW10G16   29.55F
EASTON*        PTCLDY    40  21  46 SW12      29.56F

$$

MDZ017>025-141000-
SOUTHERN MARYLAND

CITY           SKY/WX    TMP DP  RH WIND       PRES   REMARKS
PATUXENT RIVER CLEAR     37  19  48 SW13      29.55F WCI  29
ST INIGOES     CLEAR     39  21  48 SW15      29.56F
LEONARDTOWN*   CLEAR     36  21  55 SW10      29.56F WCI  28

$$

MDZ003>005-141000-
NORTH CENTRAL MARYLAND

CITY           SKY/WX    TMP DP  RH WIND       PRES   REMARKS
FREDERICK*     CLOUDY    30  28  93 CALM      29.51F
HAGERSTOWN APT CLOUDY    26  24  92 NW8       29.47R FOG     WCI  18
WESTMINSTER*   CLOUDY    30  21  69 S8        29.45F WCI  23

$$

MDZ501>502-141000-
WESTERN MARYLAND

CITY           SKY/WX    TMP DP  RH WIND       PRES   REMARKS
OAKLAND*       CLOUDY    28  28 100 W15G24    29.35S VSB 3/4 WCI  17
CUMBERLAND*    CLOUDY    27  27 100 CALM      29.51R

$$

VAZ025>031-141000-
SHENANDOAH VALLEY

CITY           SKY/WX    TMP DP  RH WIND       PRES   REMARKS
WINCHESTER*    PTCLDY    25  18  74 NW7       29.46R
FRONT ROYAL*   FAIR      36  18  48 SW7       29.43F
LURAY*         CLOUDY    37  19  48 SW7       29.46R
NEW MARKET*    CLOUDY    34  15  47 W5        29.46R
STAUNTON*      CLOUDY    37  19  47 S10       29.49S
WAYNESBORO*    CLEAR     40  19  42 SW12G21   29.47S

$$

WVZ021-048>050-054>055-141000-
EASTERN WEST VIRGINIA PANHANDLE

CITY           SKY/WX    TMP DP  RH WIND       PRES   REMARKS
MARTINSBURG    CLOUDY    25  22  88 CALM      29.47R
PETERSBURG*    CLOUDY    43  26  51 W24G43    29.46R

$$

VAZ036>039-050-141000-
CENTRAL FOOTHILLS

CITY           SKY/WX    TMP DP  RH WIND       PRES   REMARKS
CHARLOTTESVILL CLEAR     34  17  50 S12       29.50F WCI  25
CULPEPER*      FAIR      33  16  49 SW7       29.52F
ORANGE*        CLEAR     32  18  55 CALM      29.52S
GORDONSVILLE*  CLEAR     22  17  78 SW6       29.52F
WARRENTON*     PTCLDY    36  14  40 S9        29.50F WCI  29

$$

VAZ055>057-141000-
NORTH AND CENTRAL PIEDMONT

CITY           SKY/WX    TMP DP  RH WIND       PRES   REMARKS
FREDERICKSBRG* PTCLDY    35  20  55 S9        29.54S WCI  28
STAFFORD*      PTCLDY    33  17  51 S6        29.57F

$$

NCZ024-NYZ072-PAZ021-071-VAZ022-071-141000-
OTHER REGIONAL OBSERVATIONS

CITY           SKY/WX    TMP DP  RH WIND       PRES   REMARKS
NEW YORK CITY  CLOUDY    26  23  88 SE5       29.57F
PHILADELPHIA   CLOUDY    30  27  88 CALM      29.53F
PITTSBURGH     LGT SNOW  32  29  88 W16G23    29.47R BLWGSNOWWCI  21
ROANOKE        CLEAR     45  22  40 W25G36    29.57R
RICHMOND       CLEAR     37  19  48 S10       29.58F
RALEIGH        MOCLDY    35  20  54 SW9       29.69F WCI  28

$$

ANZ530>537-141000-
MARINE OBSERVATIONS

STATION/POSITION TIME  TEMP    WIND        PRES
                       AIR SEA DIR/SP/G
                 (UTC) (F)     (DEG/KT/KT) (MB)
THOMAS PT LIGHT  0900   39 44  220/ 18/ 19   N/A
BALT KEY BRIDGE  0848   37     210/ 12/ 14  999.0F
COVE POINT       0848   38     240/ 19/ 24 1000.6F
LEWISETTA        0848   39 40  240/ 15/ 20 1000.8F
SOLOMONS ISLAND  0848   39 45  220/ 16/ 20 1000.2F
PINEY POINT      0848          250/ 11/ 15   N/A

$$





USA.gov is the U.S. government's official web portal to all federal, state and local government web resources and services.